Regional Weather Roundup
Issued by NWS Northern Indiana

Current Version | Previous Version | Text Only | Print | Product List | Glossary On
Versions: 1 2 3 4 5 6 7 8 9 10 11 12 13 14 15 16 17 18 19 20 21 22 23 24 25 26 27 28 29 30 31 32 33 34 35 36 37 38 39 40 41 42 43 44 45 46 47 48 49 50
000
ASUS43 KIWX 310010
RWRIWX

KIWX WEATHER ROUNDUP
NATIONAL WEATHER SERVICE NORTHERN INDIANA
800 PM EDT MON MAR 30 2015

NOTE: "FAIR" INDICATES FEW OR NO CLOUDS BELOW 12,000 FEET WITH NO
SIGNIFICANT WEATHER AND/OR OBSTRUCTIONS TO VISIBILITY.

* THESE STATIONS ARE NOT UNDER NWS QUALITY CONTROL. THEY ALSO MAY NOT
  REPORT WEATHER SUCH AS PRECIPITATION OR FOG.

INZ001>027-310100-
NORTHERN INDIANA

CITY           SKY/WX    TMP DP  RH WIND       PRES   REMARKS
VALPARAISO     CLOUDY    56  31  38 CALM      29.95S
6HR MIN TEMP:  56; 6HR MAX TEMP:  61; 6HR PCP: TRACE;

MICHIGAN CITY* RAIN      52  28  40 NW5       29.98R
LAPORTE*       LGT RAIN  57  34  42 W9G21     29.96S
6HR MIN TEMP:  57; 6HR MAX TEMP:  61;

KNOX*            N/A     54   9  16 NW6       29.94S
SOUTH BEND     LGT RAIN  53  34  48 W7        29.97R
6HR MIN TEMP:  53; 6HR MAX TEMP:  59; 6HR PCP: TRACE;

ELKHART*       CLOUDY    55  27  33 W14       29.96
GOSHEN         CLOUDY    52  33  48 W9        29.94F
6HR MIN TEMP:  52; 6HR MAX TEMP:  58;

MONTICELLO*    CLOUDY    56  37  48 SW6       29.94F
6HR MIN TEMP:  56; 6HR MAX TEMP:  61;

LOGANSPORT*    CLOUDY    52  37  58 S8        29.96F
ROCHESTER*     CLOUDY    59  32  36 W8        29.96S
WARSAW*        CLOUDY    52  32  46 W7        29.95F
ANGOLA*        CLOUDY    54  28  37 NW9       29.94S
FORT WAYNE     CLOUDY    53  34  48 SW8       29.96F
6HR MIN TEMP:  53; 6HR MAX TEMP:  59;

HUNTINGTON*    MOCLDY    54  26  34 SW5       29.96F
6HR MIN TEMP:  54; 6HR MAX TEMP:  58;

PERU/GRISSOM   MOCLDY    52  38  57 SW8       29.96F
6HR MIN TEMP:  52; 6HR MAX TEMP:  60;

MARION*        MOCLDY    49  35  57 SW6       29.98F
6HR MIN TEMP:  -9; 6HR MAX TEMP:  69;


$$
INZ028>050-310100-
CENTRAL INDIANA

CITY           SKY/WX    TMP DP  RH WIND       PRES   REMARKS
LAFAYETTE      CLOUDY    58  31  35 SW5       29.96F
6HR MIN TEMP:  56; 6HR MAX TEMP:  62;

KOKOMO*          N/A     54  36  50 SW7       29.97F
6HR MIN TEMP:  54; 6HR MAX TEMP:  59;

MUNCIE*        MOCLDY    55  33  43 SW6       29.99F
6HR MIN TEMP:  54; 6HR MAX TEMP:  58;

INDIANAPOLIS   MOCLDY    53  31  42 SW9       30.00F
6HR MIN TEMP:  53; 6HR MAX TEMP:  61;


$$
MIZ043>046-050>051-056>058-064>065-071>073-077>080-310100-
SOUTHWEST LOWER MICHIGAN

CITY           SKY/WX    TMP DP  RH WIND       PRES   REMARKS
BATTLE CREEK   CLOUDY    50  26  39 NW3       29.93F
6HR MIN TEMP:  50; 6HR MAX TEMP:  56;

BENTON HARBOR  LGT RAIN  46  33  60 W10       29.97R
6HR MIN TEMP:  46; 6HR MAX TEMP:  55; 6HR PCP: TRACE;

COLDWATER*     CLOUDY    49  28  42 CALM      29.93F
6HR MIN TEMP:  49; 6HR MAX TEMP:  55;

HILLSDALE*     CLOUDY    49  26  39 W5        29.93F
6HR MIN TEMP:  49; 6HR MAX TEMP:  56;

HOLLAND        CLOUDY    50  28  42 SW6       29.94R
6HR MIN TEMP:  50; 6HR MAX TEMP:  53;

GRAND RAPIDS   CLOUDY    48  29  47 W9        29.92S
6HR MIN TEMP:  48; 6HR MAX TEMP:  54;

KALAMAZOO      CLOUDY    52  28  39 W8        29.92F
6HR MIN TEMP:  52; 6HR MAX TEMP:  55;

STURGIS*       CLOUDY    54  30  40 W9G16     29.94S
THREE RIVERS*  CLOUDY    52  31  44 W9        29.94S
6HR MIN TEMP:  52; 6HR MAX TEMP:  56;


$$
OHZ001>008-015>018-024>025-310100-
NORTHWEST OHIO

CITY           SKY/WX    TMP DP  RH WIND       PRES   REMARKS
WAUSEON*       FAIR      50  30  46 NW6       29.94F
DEFIANCE       CLOUDY    53  28  38 W3        29.95F
6HR MIN TEMP:  53; 6HR MAX TEMP:  59;

FINDLAY        CLOUDY    52  28  39 W7        29.95F
6HR MIN TEMP:  52; 6HR MAX TEMP:  59;

TOLEDO EXPRESS CLOUDY    51  26  37 W10       29.94S
6HR MIN TEMP:  51; 6HR MAX TEMP:  58;

TOLEDO METCALF CLOUDY    53  24  32 W16       29.95S
6HR MIN TEMP:  53; 6HR MAX TEMP:  59;

LIMA           CLOUDY    52  32  46 W10       29.97F
6HR MIN TEMP:  52; 6HR MAX TEMP:  57;


$$
AND FOR LAKE MICHIGAN COASTAL AND OPEN LAKE BUOY OBSERVATIONS

STATION/POSITION TEMP    WIND        PRES    VSBY  WAVE
                 AIR SEA DIR/SP/G                  HT/PER
                 (F)     (DEG/KT/KT) (MB)    (MI)  (FT/S)
CALUMET HARBOR    50      20/ 11/ 16 1012.8F
MICHIGAN CITY     53     300/  6/  8   N/A
BURNS HARBOR      48      30/ 11/ 12 1014.6S
SAINT JOSEPH      42     260/  3/  5 1016.3R

$$
&&


USA.gov is the U.S. government's official web portal to all federal, state and local government web resources and services.